Terug naar catalogus

FENGYUN 1C DEB

ActiefSSO
NORAD 31031·DEBRIS·🇨🇳 China

Gelanceerd May 10, 1999 vanaf Taiyuan Satellite Launch Center

Loading…

Volgende Passages (komende 24 uur)

TLE

VersSource: Space-Track

Epoch: Sep 14, 2026, 06:36 UTC

1 31031U 99025BDZ 26257.27535758  .00000499  00000-0  24866-3 0  9998
2 31031  99.0750 186.8861 0028775 118.9723  34.4682 14.21425330  7636

Volg FENGYUN 1C DEB in realtime met AllMySat

Download on the App Store